Overview Statistics Trail Chart Weather Telemetry Raw packets
 

This is the latest recevied weather packets stored in our database for station/object VE6HFD-WX. If no packets are shown the sender has not sent any weather packets the latest 10 day(s).

<< 17 18 19 20 21 22 23 >>
Time Temp. Humidity Pressure Rain* Wind** Luminosity Snow
1777923657 8.33° C 46% 1015.4 hPa 0 mm - - -
1777923327 7.78° C 46% 1015.4 hPa 0 mm - - -
1777922997 8.33° C 47% 1015.3 hPa 0 mm - - -
1777922667 8.33° C 47% 1015.4 hPa 0 mm - - -
1777922337 7.78° C 44% 1015.4 hPa 0 mm - - -
1777922055 8.33° C 45% 1015.3 hPa 0 mm - - -
1777921737 7.78° C 47% 1015.4 hPa 0 mm - - -
1777921407 7.22° C 47% 1015.4 hPa 0 mm - - -
1777921107 7.78° C 46% 1015.4 hPa 0 mm - - -
1777920777 8.33° C 47% 1015.4 hPa 0 mm - - -
1777920447 7.78° C 47% 1015.3 hPa 0 mm - - -
1777920147 7.22° C 49% 1015.4 hPa 0 mm - - -
1777919817 7.78° C 48% 1015.4 hPa 0 mm - - -
1777919487 7.22° C 48% 1015.5 hPa 0 mm - - -
1777919187 6.67° C 51% 1015.5 hPa 0 mm - - -
1777918857 7.78° C 49% 1015.5 hPa 0 mm - - -
1777918557 7.78° C 48% 1015.4 hPa 0 mm - - -
1777918227 7.78° C 48% 1015.4 hPa 0 mm - - -
1777917897 7.22° C 50% 1015.3 hPa 0 mm - - -
1777917597 7.22° C 50% 1015.3 hPa 0 mm - - -
1777917267 7.22° C 52% 1015.4 hPa 0 mm - - -
1777916967 7.22° C 50% 1015.4 hPa 0 mm - - -
1777916667 7.22° C 50% 1015.4 hPa 0 mm - - -
1777916367 7.22° C 50% 1015.4 hPa 0 mm - - -
1777916067 6.67° C 51% 1015.3 hPa 0 mm - - -

* Rain latest hour (hover to see other rain measurements)
** Current wind speed in m/s (hover to see current wind gust speed)